Location: Unnamed
(51.5169°N, 0.1311°W)
Time: 05:30:59
(UTC+01:00)

Vanguard 1 - Pass Details

Date: 13 August 2024
Orbit: 649 x 3825 km, 34.2° (Epoch: 16 September)

Event Time Altitude Azimuth Distance (km) Brightness Sun altitude
Rises 00:07:18 0° 235° (SW) 4,439 13.2 -22.7°
Reaches altitude 10° 00:10:05 10° 226° (SW) 3,799 12.8 -22.8°
Maximum altitude 00:19:18 36° 164° (SSE) 3,242 12.1 -23.1°
Drops below altitude 10° 00:34:26 10° 108° (ESE) 6,214 13.9 -23.6°
Sets 00:40:38 0° 102° (ESE) 7,604 14.4 -23.7°
